星链-5747 (STARLINK-5747 )

导读 | 豆包AI

STARLINK-5747是美国SpaceX公司旗下星链计划的一颗商用通信卫星,于2023年2月12日协调世界时8点,在空军东部测试场通过猎鹰9号运载火箭发射升空。 该卫星运行在近地轨道,重量约305公斤,近地点高度约560公里,远地点高度约562公里,轨道倾角约43度,承担着商业通信服务的任务,属于星链卫星互联网组网的一员。

Basic Information
目录编号:
55574
目录名称:
STARLINK-5747
国际标识:
2023-020F
轨道中心:
EARTH
卫星名称:
星链-5747
卫星全名:
星链-5747 (STARLINK-5747 )
卫星状态:
在轨 (已飞行1127 天)
发射日期:
2023-02-12 UTC
国别 :
美国 (US)
星等 :
--
Orbit Information
数据来源 国际轨道数据
星历时间: 2026-03-15T02:46:38+0800
21小时前
查看轨道信息
半长轴: 6937.169km
偏心率: 0.0000918
轨道倾角: 43.001°
近地点辐角 197.562°
升交点赤经 337.109°
平近点角 162.519°
近地点: 558.395km
远地点: 559.669km
周期: 95.837分钟
每日圈数: 15.025516
Detailed Information
固有亮度:
5
最大亮度:
2.5
卫星平台:
Starlink v1.5
覆盖范围:
全球
运营商:
太空探索技术公司
运营商所在国:
美国
制造商(研发单位):
太空探索技术公司
制造商所在国:
美国
使用方式:
暂无
Satellite Introduction
星链(Starlink)计划是由太空探索技术公司(SpaceX)提出的一个巨型低轨卫星互联网星座项目,计划在2019年至2024年间在太空搭建由约1.2万颗卫星组成的“星链”网络,其中1584颗将部署在地球上空550千米处的近地轨道,并从2020年开始工作。该卫星仍在工作。
2D Orbit Map
3D Orbit Map
Orbit Altitude Analysis Chart
Orbit Inclination Analysis Chart
Orbit Comprehensive Analysis Chart
View Comprehensive Chart